Project,Study,Ord_Occ,Event_Num,Cast_ID,Date_Time_UTC,Date_Time_PST,Lat_Dec,Lon_Dec,Sta_ID,Line,Sta,Depth,Pressure,PrQ,Temp1,Temp1Q,Temp2,Temp2Q,TempAve,Salt1,Salt1Q,Salt1_Corr,Salt2,Salt2Q,Salt2_Corr,SaltAve_Corr,Ox1,Ox1Q,Ox1_CruiseCorr,Ox1_StaCorr,Ox2,Ox2Q,Ox2_CruiseCorr,Ox2_StaCorr,OxAve_StaCorr,Ox1uM,Ox1uM_CruiseCorr,Ox1uM_StaCorr,Ox2uM,Ox2uM_CruiseCorr,Ox2uM_StaCorr,OxAveuM_StaCorr,FluorV,FluorQ,EstChl_CruiseCorr,EstChl_StaCorr,ISUSV,ISUSQ,EstNO3_CruiseCorr,EstNO3_StaCorr,SigThetaTS1,SigThetaTS1Q,SigThetaTS2,SigThetaTS2Q,BAT,XMiss,TransQ,pH,pHQ,SPAR,SPARQ,PAR,PARQ,PoT1,PoT2,DynHt,SVA,OxSat1,OxSat2,BTL_Depth,BTL_Temp,SaltB,OxB,OxBuM,Chl-a,Phaeo,NO3,NO2,NH4,PO4,SIL
CalCOFI,2007SR,027,28,2007_027d,18-Jul-2020 20:10:20,18-Jul-2020 12:10:20,33.18566,-118.38618,090.0 037.0,090.0,037.0,12.000,12.086,,19.7970,,19.8646,,19.8308,33.6941,,33.6943,33.7025,,33.7041,33.6992,5.5497,,5.7812,5.7657,3.9830,,5.5674,3.8693,4.8175,242.083,252.2223,249.9624,173.745,426.5557,167.7914,208.8769,0.0814,,0.5324,0.7416,-99.0,,-99.0,-99.0,23.8195,,23.8084,,0.8302,81.2563,,8.179,,2.2526E+03,,2.1622E+01,,19.7948,19.8624,-0.0000,,106.019,76.191,10,19.738,33.6825,5.805,253.39,1.010,0.052,0.0,0.00,0.00,0.06,0.31
CalCOFI,2007SR,027,28,2007_027d,18-Jul-2020 20:10:22,18-Jul-2020 12:10:22,33.18566,-118.38618,090.0 037.0,090.0,037.0,13.000,13.093,,19.4802,,19.4866,,19.4834,33.6792,,33.6794,33.6792,,33.6808,33.6801,5.4767,,5.7049,5.6902,4.0297,,5.6789,3.9682,4.8292,238.883,248.8819,246.6571,175.769,418.7289,172.2920,209.4746,0.0887,,0.6183,0.8237,-99.0,,-99.0,-99.0,23.8900,,23.8883,,0.8283,81.2952,,8.177,,2.2608E+03,,2.1140E+01,,19.4778,19.4842,0.0041,,104.008,76.537,,,,,,,,,,,,
CalCOFI,2007SR,027,28,2007_027d,18-Jul-2020 20:10:24,18-Jul-2020 12:10:24,33.18566,-118.38618,090.0 037.0,090.0,037.0,14.000,14.100,,19.4159,,19.4449,,19.4304,33.6720,,33.6722,33.6756,,33.6772,33.6747,5.5023,,5.7317,5.7167,4.0853,,5.8116,4.0859,4.9013,239.995,250.0427,247.8057,178.191,421.4487,177.6776,212.7417,0.0943,,0.6842,0.8819,-99.0,,-99.0,-99.0,23.9010,,23.8964,,0.8323,81.2159,,8.175,,2.2635E+03,,1.7601E+01,,19.4134,19.4424,0.0081,,104.364,77.531,,,,,,,,,,,,
CalCOFI,2007SR,027,28,2007_027d,18-Jul-2020 20:10:26,18-Jul-2020 12:10:26,33.18566,-118.38618,090.0 037.0,090.0,037.0,15.000,15.107,,18.1878,,18.1619,,18.1749,33.5969,,33.5971,33.5755,,33.5771,33.5871,5.6516,,5.8877,5.8712,4.1927,,6.0680,4.3133,5.0923,246.449,256.7800,254.4722,182.833,437.2343,187.9996,221.2359,0.1052,,0.8126,0.9831,-99.0,,-99.0,-99.0,24.1509,,24.1407,,0.8305,81.2509,,8.179,,2.2612E+03,,1.5791E+01,,18.1852,18.1593,0.0120,,104.704,77.625,,,,,,,,,,,,
CalCOFI,2007SR,027,28,2007_027d,18-Jul-2020 20:10:28,18-Jul-2020 12:10:28,33.18566,-118.38618,090.0 037.0,090.0,037.0,16.000,16.114,,17.4264,,17.4523,,17.4394,33.5778,,33.5780,33.5814,,33.5830,33.5805,5.7582,,5.9990,5.9815,4.2599,,6.2285,4.4556,5.2186,251.055,261.5882,259.2298,185.731,448.4999,194.4436,226.8367,0.1015,,0.7690,0.9505,-99.0,,-99.0,-99.0,24.3223,,24.3189,,0.8175,81.5152,,8.175,,2.2609E+03,,1.3805E+01,,17.4237,17.4496,0.0157,,105.138,77.823,,,,,,,,,,,,
CalCOFI,2007SR,027,28,2007_027d,18-Jul-2020 20:10:30,18-Jul-2020 12:10:30,33.18566,-118.38618,090.0 037.0,090.0,037.0,17.000,17.122,,16.8729,,16.8498,,16.8614,33.5562,,33.5564,33.5526,,33.5542,33.5553,5.7886,,6.0308,6.0130,4.3167,,6.3641,4.5759,5.2945,252.351,262.9411,260.5685,188.186,451.6697,199.9026,230.2356,0.1039,,0.7973,0.9719,-99.0,,-99.0,-99.0,24.4366,,24.4392,,0.7976,81.9221,,8.169,,2.2615E+03,,1.1910E+01,,16.8701,16.8470,0.0193,,104.565,77.937,,,,,,,,,,,,
CalCOFI,2007SR,027,28,2007_027d,18-Jul-2020 20:10:33,18-Jul-2020 12:10:33,33.18566,-118.38618,090.0 037.0,090.0,037.0,18.000,18.129,,16.7061,,16.5916,,16.6489,33.5571,,33.5573,33.5600,,33.5616,33.5595,5.7819,,6.0238,6.0060,4.3677,,6.4858,4.6839,5.3450,252.052,262.6290,260.2596,190.397,450.9384,204.8190,232.5393,0.1046,,0.8055,0.9780,-99.0,,-99.0,-99.0,24.4765,,24.5053,,0.7976,81.9220,,8.163,,2.2554E+03,,1.0523E+01,,16.7032,16.5887,0.0228,,104.107,78.470,,,,,,,,,,,,
CalCOFI,2007SR,027,28,2007_027d,18-Jul-2020 20:10:34,18-Jul-2020 12:10:34,33.18566,-118.38618,090.0 037.0,090.0,037.0,19.000,19.136,,16.1245,,16.0532,,16.0889,33.5232,,33.5234,33.5149,,33.5165,33.5200,5.8966,,6.1437,6.1248,4.4142,,6.5968,4.7823,5.4536,257.022,267.8172,265.3932,192.407,463.0943,209.2884,237.3408,0.1092,,0.8597,1.0164,-99.0,,-99.0,-99.0,24.5840,,24.5938,,0.7848,82.1843,,8.160,,2.2619E+03,,8.9422E+00,,16.1215,16.0502,0.0262,,104.951,78.454,,,,,,,,,,,,
CalCOFI,2007SR,027,28,2007_027d,18-Jul-2020 20:10:36,18-Jul-2020 12:10:36,33.18566,-118.38618,090.0 037.0,090.0,037.0,20.000,20.143,,15.5544,,15.5327,,15.5436,33.5195,,33.5197,33.5204,,33.5220,33.5209,5.9476,,6.1969,6.1775,4.4562,,6.6971,4.8713,5.5244,259.214,270.1054,267.6574,194.214,468.4556,213.3065,240.4820,0.1100,,0.8692,1.0227,-99.0,,-99.0,-99.0,24.7096,,24.7151,,0.7778,82.3293,,8.156,,2.2637E+03,,7.3847E+00,,15.5514,15.5296,0.0295,,104.679,78.397,,,,,,,,,,,,
CalCOFI,2007SR,027,28,2007_027d,18-Jul-2020 20:10:39,18-Jul-2020 12:10:39,33.18566,-118.38618,090.0 037.0,090.0,037.0,21.000,21.151,,15.4344,,15.3958,,15.4151,33.5093,,33.5095,33.5105,,33.5121,33.5108,5.9464,,6.1957,6.1763,4.4664,,6.7214,4.8929,5.5346,259.156,270.0448,267.5975,194.656,468.3138,214.2893,240.9434,0.1083,,0.8491,1.0091,-99.0,,-99.0,-99.0,24.7283,,24.7378,,0.7709,82.4702,,8.152,,2.2634E+03,,6.2845E+00,,15.4312,15.3926,0.0328,,104.403,78.360,21,16.402,33.5810,,268.55,1.109,0.075,0.0,0.00,0.23,0.15,0.30
CalCOFI,2007SR,027,28,2007_027d,18-Jul-2020 20:10:41,18-Jul-2020 12:10:41,33.18566,-118.38618,090.0 037.0,090.0,037.0,22.000,22.158,,15.2843,,15.2677,,15.2760,33.4960,,33.4962,33.4986,,33.5002,33.4982,5.9531,,6.2027,6.1832,4.4800,,6.7539,4.9217,5.5525,259.445,270.3465,267.8960,195.242,469.0206,215.5923,241.7442,0.1010,,0.7631,0.9460,-99.0,,-99.0,-99.0,24.7512,,24.7568,,0.7635,82.6243,,8.148,,2.2576E+03,,5.3417E+00,,15.2810,15.2644,0.0360,,104.203,78.392,,,,,,,,,,,,
CalCOFI,2007SR,027,28,2007_027d,18-Jul-2020 20:10:43,18-Jul-2020 12:10:43,33.18566,-118.38618,090.0 037.0,090.0,037.0,23.000,23.165,,15.1588,,15.1375,,15.1482,33.4927,,33.4929,33.4959,,33.4975,33.4952,5.9637,,6.2138,6.1942,4.4883,,6.7737,4.9392,5.5667,259.898,270.8194,268.3639,195.601,470.1286,216.3906,242.3773,0.1098,,0.8668,1.0212,-99.0,,-99.0,-99.0,24.7762,,24.7833,,0.7616,82.6619,,8.146,,2.2642E+03,,4.6757E+00,,15.1553,15.1340,0.0392,,104.126,78.335,,,,,,,,,,,,
CalCOFI,2007SR,027,28,2007_027d,18-Jul-2020 20:10:45,18-Jul-2020 12:10:45,33.18566,-118.38618,090.0 037.0,090.0,037.0,24.000,24.172,,15.0506,,15.0474,,15.0490,33.5005,,33.5007,33.5054,,33.5070,33.5039,5.9726,,6.2231,6.2034,4.4918,,6.7821,4.9467,5.5751,260.282,271.2203,268.7606,195.749,471.0678,216.7197,242.7402,0.1143,,0.9198,1.0556,-99.0,,-99.0,-99.0,24.8058,,24.8103,,0.7633,82.6286,,8.143,,2.2637E+03,,4.1007E+00,,15.0470,15.0438,0.0424,,104.063,78.260,,,,,,,,,,,,
CalCOFI,2007SR,027,28,2007_027d,18-Jul-2020 20:10:46,18-Jul-2020 12:10:46,33.18566,-118.38618,090.0 037.0,090.0,037.0,25.000,25.179,,14.9590,,14.9519,,14.9555,33.4964,,33.4966,33.4993,,33.5009,33.4988,5.9864,,6.2375,6.2177,4.4989,,6.7990,4.9617,5.5897,260.879,271.8435,269.3772,196.054,472.5280,217.3979,243.3876,0.1118,,0.8904,1.0368,-99.0,,-99.0,-99.0,24.8226,,24.8264,,0.7586,82.7243,,8.142,,2.2641E+03,,3.4621E+00,,14.9552,14.9482,0.0455,,104.110,78.231,,,,,,,,,,,,
CalCOFI,2007SR,027,28,2007_027d,18-Jul-2020 20:10:48,18-Jul-2020 12:10:48,33.18566,-118.38618,090.0 037.0,090.0,037.0,26.000,26.187,,14.8841,,14.8673,,14.8757,33.4920,,33.4922,33.4956,,33.4972,33.4947,5.9820,,6.2329,6.2131,4.5023,,6.8071,4.9689,5.5910,260.682,271.6378,269.1737,196.197,472.0462,217.7159,243.4448,0.1143,,0.9198,1.0556,-99.0,,-99.0,-99.0,24.8355,,24.8418,,0.7522,82.8566,,8.139,,2.2501E+03,,2.9678E+00,,14.8802,14.8635,0.0487,,103.875,78.156,,,,,,,,,,,,
CalCOFI,2007SR,027,28,2007_027d,18-Jul-2020 20:10:51,18-Jul-2020 12:10:51,33.18566,-118.38618,090.0 037.0,090.0,037.0,27.000,27.194,,14.8429,,14.8262,,14.8346,33.4872,,33.4874,33.4898,,33.4914,33.4894,5.9614,,6.2114,6.1918,4.5055,,6.8148,4.9757,5.5838,259.785,270.7015,268.2472,196.336,469.8522,218.0250,243.1361,0.1118,,0.8904,1.0368,-99.0,,-99.0,-99.0,24.8407,,24.8463,,0.7505,82.8922,,8.138,,2.2563E+03,,2.6156E+00,,14.8389,14.8221,0.0518,,103.430,78.144,,,,,,,,,,,,
CalCOFI,2007SR,027,28,2007_027d,18-Jul-2020 20:10:53,18-Jul-2020 12:10:53,33.18566,-118.38618,090.0 037.0,090.0,037.0,28.000,28.201,,14.7749,,14.7710,,14.7730,33.4804,,33.4806,33.4839,,33.4855,33.4831,5.9641,,6.2142,6.1946,4.5104,,6.8265,4.9860,5.5903,259.900,270.8215,268.3660,196.549,470.1335,218.4986,243.4323,0.1120,,0.8927,1.0383,-99.0,,-99.0,-99.0,24.8500,,24.8536,,0.7494,82.9151,,8.134,,2.2605E+03,,2.3390E+00,,14.7707,14.7669,0.0549,,103.332,78.140,,,,,,,,,,,,
CalCOFI,2007SR,027,28,2007_027d,18-Jul-2020 20:10:55,18-Jul-2020 12:10:55,33.18566,-118.38618,090.0 037.0,090.0,037.0,29.000,29.208,,14.6159,,14.6196,,14.6178,33.4697,,33.4699,33.4724,,33.4740,33.4720,5.9816,,6.2325,6.2127,4.5167,,6.8415,4.9994,5.6061,260.656,271.6107,269.1469,196.817,471.9826,219.0945,244.1207,0.1170,,0.9517,1.0750,-99.0,,-99.0,-99.0,24.8759,,24.8772,,0.7508,82.8856,,8.135,,2.2619E+03,,2.0879E+00,,14.6117,14.6153,0.0580,,103.298,78.006,,,,,,,,,,,,
CalCOFI,2007SR,027,28,2007_027d,18-Jul-2020 20:10:56,18-Jul-2020 12:10:56,33.18566,-118.38618,090.0 037.0,090.0,037.0,30.000,30.216,,14.5516,,14.5416,,14.5466,33.4684,,33.4686,33.4712,,33.4728,33.4707,5.9535,,6.2031,6.1836,4.5279,,6.8683,5.0231,5.6034,259.426,270.3267,267.8764,197.304,468.9742,220.1774,244.0269,0.1229,,1.0212,1.1140,-99.0,,-99.0,-99.0,24.8886,,24.8929,,0.7535,82.8299,,8.132,,2.2597E+03,,1.8218E+00,,14.5472,14.5372,0.0611,,102.678,78.077,30,14.824,33.4849,,271.40,2.045,0.669,0.0,0.00,0.25,0.27,0.16
CalCOFI,2007SR,027,28,2007_027d,18-Jul-2020 20:10:59,18-Jul-2020 12:10:59,33.18566,-118.38618,090.0 037.0,090.0,037.0,31.000,31.223,,14.4664,,14.4297,,14.4481,33.4594,,33.4596,33.4603,,33.4619,33.4608,5.9409,,6.1899,6.1706,4.5402,,6.8976,5.0491,5.6099,258.873,269.7494,267.3052,197.839,467.6216,221.3670,244.3361,0.1407,,1.2312,1.2035,-99.0,,-99.0,-99.0,24.8998,,24.9083,,0.7692,82.5062,,8.130,,2.2573E+03,,1.5847E+00,,14.4619,14.4252,0.0642,,102.280,78.109,,,,,,,,,,,,
CalCOFI,2007SR,027,28,2007_027d,18-Jul-2020 20:11:01,18-Jul-2020 12:11:01,33.18566,-118.38618,090.0 037.0,090.0,037.0,32.000,32.230,,14.2930,,14.2906,,14.2918,33.4475,,33.4477,33.4508,,33.4524,33.4501,5.9333,,6.1820,6.1627,4.5500,,6.9210,5.0699,5.6163,258.538,269.3997,266.9591,198.262,466.8022,222.3076,244.6334,0.1564,,1.4166,1.2476,-99.0,,-99.0,-99.0,24.9273,,24.9303,,0.7704,82.4809,,8.127,,2.2605E+03,,1.4281E+00,,14.2883,14.2860,0.0673,,101.786,78.054,,,,,,,,,,,,
CalCOFI,2007SR,027,28,2007_027d,18-Jul-2020 20:11:03,18-Jul-2020 12:11:03,33.18566,-118.38618,090.0 037.0,090.0,037.0,33.000,33.237,,14.2079,,14.2103,,14.2091,33.4485,,33.4487,33.4523,,33.4539,33.4513,5.9197,,6.1678,6.1487,4.5501,,6.9213,5.0701,5.6094,257.938,268.7734,266.3394,198.263,465.3347,222.3098,244.3246,0.1756,,1.6435,1.2569,-99.0,,-99.0,-99.0,24.9459,,24.9483,,0.7830,82.2219,,8.124,,2.2625E+03,,1.2854E+00,,14.2032,14.2055,0.0703,,101.378,77.930,,,,,,,,,,,,
CalCOFI,2007SR,027,28,2007_027d,18-Jul-2020 20:11:04,18-Jul-2020 12:11:04,33.18566,-118.38618,090.0 037.0,090.0,037.0,34.000,34.245,,14.1502,,14.1518,,14.1510,33.4473,,33.4475,33.4510,,33.4526,33.4501,5.9074,,6.1549,6.1359,4.5501,,6.9213,5.0701,5.6030,257.401,268.2128,265.7847,198.257,464.0213,222.2965,244.0406,0.2019,,1.9547,1.1901,-99.0,,-99.0,-99.0,24.9571,,24.9596,,0.7881,82.1182,,8.122,,2.2617E+03,,1.1285E+00,,14.1453,14.1469,0.0733,,101.049,77.835,,,,,,,,,,,,
CalCOFI,2007SR,027,28,2007_027d,18-Jul-2020 20:11:07,18-Jul-2020 12:11:07,33.18566,-118.38618,090.0 037.0,090.0,037.0,35.000,35.252,,14.1132,,14.1136,,14.1134,33.4486,,33.4488,33.4519,,33.4535,33.4512,5.8510,,6.0960,6.0776,4.5560,,6.9353,5.0826,5.5801,254.940,265.6438,263.2427,198.515,458.0020,222.8702,243.0565,0.2033,,1.9712,1.1839,-99.0,,-99.0,-99.0,24.9658,,24.9683,,0.7915,82.0480,,8.119,,2.2592E+03,,9.7520E-01,,14.1081,14.1085,0.0763,,100.010,77.877,,,,,,,,,,,,
CalCOFI,2007SR,027,28,2007_027d,18-Jul-2020 20:11:09,18-Jul-2020 12:11:09,33.18566,-118.38618,090.0 037.0,090.0,037.0,36.000,36.259,,14.0554,,14.0498,,14.0526,33.4471,,33.4473,33.4501,,33.4517,33.4495,5.8096,,6.0528,6.0347,4.5619,,6.9494,5.0951,5.5649,253.135,263.7595,261.3783,198.770,453.5873,223.4372,242.4078,0.2166,,2.1288,1.1127,-99.0,,-99.0,-99.0,24.9768,,24.9802,,0.7942,81.9924,,8.114,,2.2634E+03,,8.5157E-01,,14.0502,14.0446,0.0793,,99.186,77.877,,,,,,,,,,,,
CalCOFI,2007SR,027,28,2007_027d,18-Jul-2020 20:11:11,18-Jul-2020 12:11:11,33.18566,-118.38618,090.0 037.0,090.0,037.0,37.000,37.267,,13.9036,,13.9068,,13.9052,33.4371,,33.4373,33.4402,,33.4418,33.4396,5.7201,,5.9592,5.9421,4.5689,,6.9661,5.1099,5.5260,249.230,259.6831,257.3447,199.072,444.0362,224.1087,240.7267,0.2441,,2.4549,0.8907,-99.0,,-99.0,-99.0,25.0005,,25.0022,,0.7997,81.8807,,8.111,,2.2631E+03,,7.5908E-01,,13.8983,13.9016,0.0823,,97.352,77.766,,,,,,,,,,,,
CalCOFI,2007SR,027,28,2007_027d,18-Jul-2020 20:11:13,18-Jul-2020 12:11:13,33.18566,-118.38618,090.0 037.0,090.0,037.0,38.000,38.274,,13.7844,,13.7875,,13.7860,33.4402,,33.4404,33.4430,,33.4446,33.4425,5.6787,,5.9160,5.8992,4.5737,,6.9776,5.1201,5.5097,247.417,257.7905,255.4720,199.275,439.6019,224.5601,240.0161,0.2417,,2.4264,0.9141,-99.0,,-99.0,-99.0,25.0275,,25.0290,,0.8007,81.8583,,8.105,,2.2552E+03,,6.6265E-01,,13.7791,13.7821,0.0853,,96.414,77.660,,,,,,,,,,,,
CalCOFI,2007SR,027,28,2007_027d,18-Jul-2020 20:11:15,18-Jul-2020 12:11:15,33.18566,-118.38618,090.0 037.0,090.0,037.0,39.000,39.281,,13.6989,,13.7019,,13.7004,33.4494,,33.4496,33.4531,,33.4547,33.4522,5.6459,,5.8817,5.8653,4.5773,,6.9862,5.1277,5.4965,245.982,256.2925,253.9898,199.425,436.0921,224.8937,239.4418,0.2915,,3.0180,0.2722,-99.0,,-99.0,-99.0,25.0522,,25.0544,,0.8120,81.6277,,8.097,,2.2636E+03,,5.6604E-01,,13.6934,13.6965,0.0882,,95.696,77.590,,,,,,,,,,,,
CalCOFI,2007SR,027,28,2007_027d,18-Jul-2020 20:11:17,18-Jul-2020 12:11:17,33.18566,-118.38618,090.0 037.0,090.0,037.0,40.000,40.289,,13.6493,,13.6525,,13.6509,33.4501,,33.4503,33.4531,,33.4547,33.4525,5.3587,,5.5816,5.5680,4.5798,,6.9922,5.1330,5.3505,233.467,243.2281,241.0628,199.533,405.4821,225.1338,233.0983,0.2876,,2.9716,0.3344,-99.0,,-99.0,-99.0,25.0629,,25.0646,,0.8265,81.3335,,8.089,,2.2620E+03,,4.8304E-01,,13.6437,13.6469,0.0912,,90.737,77.554,40,13.419,33.4779,,245.40,0.354,0.367,1.08,0.062,0.19,0.47,2.11
CalCOFI,2007SR,027,28,2007_027d,18-Jul-2020 20:11:19,18-Jul-2020 12:11:19,33.18566,-118.38618,090.0 037.0,090.0,037.0,41.000,41.296,,13.5639,,13.5640,,13.5640,33.4668,,33.4670,33.4700,,33.4716,33.4693,5.2339,,5.4512,5.4389,4.5826,,6.9988,5.1389,5.2889,228.025,237.5472,235.4416,199.649,392.1718,225.3918,230.4167,0.3572,,3.8007,0.0000,-99.0,,-99.0,-99.0,25.0932,,25.0957,,0.8360,81.1396,,8.076,,2.2599E+03,,4.2384E-01,,13.5581,13.5583,0.0941,,88.478,77.470,,,,,,,,,,,,
CalCOFI,2007SR,027,28,2007_027d,18-Jul-2020 20:11:21,18-Jul-2020 12:11:21,33.18566,-118.38618,090.0 037.0,090.0,037.0,42.000,42.303,,13.4502,,13.4451,,13.4477,33.4758,,33.4760,33.4776,,33.4792,33.4776,5.2634,,5.4820,5.4694,4.5819,,6.9972,5.1374,5.3034,229.301,238.8792,236.7596,199.614,395.2927,225.3139,231.0368,0.3870,,4.1566,0.0000,-99.0,,-99.0,-99.0,25.1232,,25.1257,,0.8366,81.1264,,8.063,,2.2589E+03,,3.7035E-01,,13.4444,13.4393,0.0969,,88.775,77.274,,,,,,,,,,,,
CalCOFI,2007SR,027,28,2007_027d,18-Jul-2020 20:11:22,18-Jul-2020 12:11:22,33.18566,-118.38618,090.0 037.0,090.0,037.0,43.000,43.311,,13.3196,,13.3195,,13.3196,33.4674,,33.4676,33.4713,,33.4729,33.4703,5.2492,,5.4672,5.4547,4.5788,,6.9898,5.1309,5.2928,228.681,238.2320,236.1192,199.476,393.7763,225.0071,230.5632,0.3606,,3.8413,0.0000,-99.0,,-99.0,-99.0,25.1431,,25.1462,,0.8397,81.0652,,8.055,,2.2635E+03,,3.0322E-01,,13.3136,13.3135,0.0998,,88.295,77.020,,,,,,,,,,,,
CalCOFI,2007SR,027,28,2007_027d,18-Jul-2020 20:11:25,18-Jul-2020 12:11:25,33.18566,-118.38618,090.0 037.0,090.0,037.0,44.000,44.318,,13.3309,,13.3309,,13.3309,33.4776,,33.4778,33.4821,,33.4837,33.4808,5.1667,,5.3810,5.3693,4.5605,,6.9461,5.0921,5.2307,225.087,234.4802,232.4069,198.675,384.9859,223.2260,227.8165,0.2755,,2.8277,0.5144,-99.0,,-99.0,-99.0,25.1488,,25.1523,,0.8015,81.8420,,8.048,,2.2614E+03,,2.2505E-01,,13.3248,13.3248,0.1026,,86.933,76.735,,,,,,,,,,,,
CalCOFI,2007SR,027,28,2007_027d,18-Jul-2020 20:11:27,18-Jul-2020 12:11:27,33.18566,-118.38618,090.0 037.0,090.0,037.0,45.000,45.325,,13.3847,,13.3824,,13.3836,33.4989,,33.4991,33.5027,,33.5043,33.5017,4.8416,,5.0413,5.0329,4.5587,,6.9418,5.0883,5.0606,210.922,219.6934,217.7756,198.593,350.3403,223.0436,220.4096,0.1931,,1.8505,1.2227,-99.0,,-99.0,-99.0,25.1544,,25.1579,,0.7685,82.5210,,8.041,,2.2625E+03,,1.6894E-01,,13.3785,13.3762,0.1055,,81.563,76.795,,,,,,,,,,,,
CalCOFI,2007SR,027,28,2007_027d,18-Jul-2020 20:11:29,18-Jul-2020 12:11:29,33.18566,-118.38618,090.0 037.0,090.0,037.0,46.000,46.333,,13.3511,,13.3395,,13.3453,33.5126,,33.5128,33.5119,,33.5135,33.5132,4.5417,,4.7279,4.7225,4.5632,,6.9525,5.0978,4.9102,197.852,206.0496,204.2753,198.787,318.3729,223.4750,213.8752,0.1605,,1.4650,1.2537,-99.0,,-99.0,-99.0,25.1718,,25.1735,,0.7415,83.0791,,8.030,,2.2634E+03,,1.4295E-01,,13.3448,13.3331,0.1083,,76.466,76.807,,,,,,,,,,,,
CalCOFI,2007SR,027,28,2007_027d,18-Jul-2020 20:11:31,18-Jul-2020 12:11:31,33.18566,-118.38618,090.0 037.0,090.0,037.0,47.000,47.340,,12.9430,,12.9370,,12.9400,33.5122,,33.5124,33.5134,,33.5150,33.5137,4.4899,,4.6738,4.6689,4.5870,,7.0093,5.1482,4.9086,195.579,203.6768,201.9275,199.810,312.8135,225.7498,213.8387,0.1635,,1.5005,1.2567,-99.0,,-99.0,-99.0,25.2529,,25.2550,,0.7475,82.9546,,8.013,,2.2642E+03,,1.2623E-01,,12.9366,12.9307,0.1111,,74.960,76.572,,,,,,,,,,,,
CalCOFI,2007SR,027,28,2007_027d,18-Jul-2020 20:11:33,18-Jul-2020 12:11:33,33.18566,-118.38618,090.0 037.0,090.0,037.0,48.000,48.347,,12.7571,,12.7588,,12.7580,33.5260,,33.5262,33.5285,,33.5301,33.5282,4.4613,,4.6439,4.6393,4.5855,,7.0058,5.1451,4.8922,194.327,202.3699,200.6343,199.734,309.7513,225.5808,213.1076,0.1553,,1.4036,1.2455,-99.0,,-99.0,-99.0,25.3001,,25.3018,,0.7391,83.1284,,7.994,,2.2642E+03,,1.1651E-01,,12.7507,12.7524,0.1138,,74.204,76.273,,,,,,,,,,,,
CalCOFI,2007SR,027,28,2007_027d,18-Jul-2020 20:11:35,18-Jul-2020 12:11:35,33.18566,-118.38618,090.0 037.0,090.0,037.0,49.000,49.355,,12.6869,,12.6897,,12.6883,33.5326,,33.5328,33.5361,,33.5377,33.5353,4.3924,,4.5719,4.5679,4.5733,,6.9766,5.1192,4.8436,191.319,199.2298,197.5273,199.198,302.3941,224.3889,210.9581,0.1324,,1.1333,1.1670,-99.0,,-99.0,-99.0,25.3191,,25.3212,,0.7282,83.3562,,7.979,,2.2608E+03,,1.0494E-01,,12.6804,12.6832,0.1165,,72.954,75.964,,,,,,,,,,,,
CalCOFI,2007SR,027,28,2007_027d,18-Jul-2020 20:11:37,18-Jul-2020 12:11:37,33.18566,-118.38618,090.0 037.0,090.0,037.0,50.000,50.362,,12.6268,,12.6309,,12.6289,33.5356,,33.5358,33.5384,,33.5400,33.5379,4.3125,,4.4884,4.4853,4.5623,,6.9504,5.0959,4.7906,187.839,195.5970,193.9327,198.716,293.8825,223.3171,208.6249,0.1337,,1.1486,1.1733,-99.0,,-99.0,-99.0,25.3331,,25.3344,,0.7221,83.4834,,7.968,,2.2583E+03,,8.6089E-02,,12.6201,12.6242,0.1192,,71.540,75.690,50,11.794,33.6162,,177.89,0.257,0.305,12.53,0.032,0.10,1.12,11.60
CalCOFI,2007SR,027,28,2007_027d,18-Jul-2020 20:11:39,18-Jul-2020 12:11:39,33.18566,-118.38618,090.0 037.0,090.0,037.0,51.000,51.369,,12.5104,,12.5097,,12.5101,33.5392,,33.5394,33.5421,,33.5437,33.5416,4.2297,,4.4019,4.3996,4.5575,,6.9389,5.0858,4.7427,184.225,191.8244,190.1997,198.505,285.0432,222.8480,206.5239,0.1032,,0.7890,0.9657,-99.0,,-99.0,-99.0,25.3585,,25.3608,,0.7065,83.8081,,7.959,,2.2628E+03,,8.3112E-02,,12.5036,12.5030,0.1218,,69.997,75.423,,,,,,,,,,,,
CalCOFI,2007SR,027,28,2007_027d,18-Jul-2020 20:11:41,18-Jul-2020 12:11:41,33.18566,-118.38618,090.0 037.0,090.0,037.0,52.000,52.377,,12.4008,,12.3954,,12.3981,33.5485,,33.5487,33.5510,,33.5526,33.5507,4.1825,,4.3526,4.3507,4.5541,,6.9308,5.0786,4.7147,182.167,189.6760,188.0740,198.349,280.0096,222.5011,205.2876,0.0759,,0.4677,0.6750,-99.0,,-99.0,-99.0,25.3869,,25.3898,,0.6948,84.0547,,7.951,,2.2397E+03,,8.1006E-02,,12.3940,12.3886,0.1244,,69.063,75.191,,,,,,,,,,,,
CalCOFI,2007SR,027,28,2007_027d,18-Jul-2020 20:11:43,18-Jul-2020 12:11:43,33.18566,-118.38618,090.0 037.0,090.0,037.0,53.000,53.384,,12.1911,,12.1835,,12.1873,33.5464,,33.5466,33.5470,,33.5486,33.5476,4.1742,,4.3439,4.3421,4.5523,,6.9265,5.0748,4.7085,181.800,189.2929,187.6949,198.264,279.1120,222.3121,205.0035,0.0880,,0.6101,0.8161,-99.0,,-99.0,-99.0,25.4253,,25.4272,,0.6868,84.2233,,7.943,,2.2490E+03,,9.0017E-02,,12.1842,12.1766,0.1270,,68.624,74.827,,,,,,,,,,,,
CalCOFI,2007SR,027,28,2007_027d,18-Jul-2020 20:11:45,18-Jul-2020 12:11:45,33.18566,-118.38618,090.0 037.0,090.0,037.0,54.000,54.391,,12.0129,,12.0200,,12.0165,33.5562,,33.5564,33.5586,,33.5602,33.5583,4.0548,,4.2192,4.2185,4.5436,,6.9057,5.0563,4.6374,176.589,183.8532,182.3123,197.880,266.3666,221.4582,201.8853,0.0894,,0.6265,0.8312,-99.0,,-99.0,-99.0,25.4667,,25.4672,,0.6905,84.1457,,7.935,,2.2630E+03,,6.9673E-02,,12.0060,12.0130,0.1296,,66.416,74.435,,,,,,,,,,,,
CalCOFI,2007SR,027,28,2007_027d,18-Jul-2020 20:11:47,18-Jul-2020 12:11:47,33.18566,-118.38618,090.0 037.0,090.0,037.0,55.000,55.399,,11.9498,,11.9362,,11.9430,33.5739,,33.5741,33.5790,,33.5806,33.5774,3.9260,,4.0846,4.0852,4.5244,,6.8599,5.0157,4.5505,170.977,177.9948,176.5156,197.035,252.6405,219.5793,198.0475,0.0999,,0.7502,0.9359,-99.0,,-99.0,-99.0,25.4923,,25.4989,,0.6955,84.0404,,7.927,,2.2638E+03,,4.8652E-02,,11.9427,11.9292,0.1321,,64.229,73.999,,,,,,,,,,,,
CalCOFI,2007SR,027,28,2007_027d,18-Jul-2020 20:11:49,18-Jul-2020 12:11:49,33.18566,-118.38618,090.0 037.0,090.0,037.0,56.000,56.406,,11.8212,,11.8121,,11.8167,33.5989,,33.5991,33.6033,,33.6049,33.6020,3.9190,,4.0773,4.0780,4.5084,,6.8217,4.9818,4.5299,170.667,177.6712,176.1954,196.332,251.8823,218.0161,197.1058,0.0911,,0.6465,0.8491,-99.0,,-99.0,-99.0,25.5358,,25.5410,,0.6931,84.0912,,7.916,,2.2639E+03,,3.6087E-02,,11.8141,11.8050,0.1346,,63.951,73.557,,,,,,,,,,,,
CalCOFI,2007SR,027,28,2007_027d,18-Jul-2020 20:11:51,18-Jul-2020 12:11:51,33.18566,-118.38618,090.0 037.0,090.0,037.0,57.000,57.414,,11.7892,,11.7816,,11.7854,33.6025,,33.6027,33.6067,,33.6083,33.6055,3.8903,,4.0473,4.0483,4.4831,,6.7613,4.9282,4.4883,169.415,176.3642,174.9022,195.229,248.8201,215.5634,195.2328,0.0904,,0.6383,0.8418,-99.0,,-99.0,-99.0,25.5447,,25.5493,,0.6935,84.0830,,7.909,,2.2631E+03,,3.0289E-02,,11.7819,11.7743,0.1371,,63.442,73.099,,,,,,,,,,,,
CalCOFI,2007SR,027,28,2007_027d,18-Jul-2020 20:11:53,18-Jul-2020 12:11:53,33.18566,-118.38618,090.0 037.0,090.0,037.0,58.000,58.421,,11.7427,,11.7379,,11.7403,33.6070,,33.6072,33.6110,,33.6126,33.6099,3.8738,,4.0300,4.0312,4.4593,,6.7045,4.8778,4.4545,168.691,175.6084,174.1543,194.187,247.0493,213.2464,193.7004,0.0934,,0.6736,0.8728,-99.0,,-99.0,-99.0,25.5569,,25.5608,,0.6887,84.1843,,7.902,,2.2510E+03,,1.9974E-02,,11.7353,11.7305,0.1395,,63.111,72.645,,,,,,,,,,,,
CalCOFI,2007SR,027,28,2007_027d,18-Jul-2020 20:11:55,18-Jul-2020 12:11:55,33.18566,-118.38618,090.0 037.0,090.0,037.0,59.000,59.428,,11.7048,,11.7047,,11.7048,33.6112,,33.6114,33.6147,,33.6163,33.6139,3.8468,,4.0018,4.0033,4.4289,,6.6319,4.8135,4.4084,167.514,174.3798,172.9386,192.861,244.1705,210.2979,191.6183,0.0866,,0.5936,0.8008,-99.0,,-99.0,-99.0,25.5671,,25.5699,,0.6911,84.1333,,7.898,,2.2615E+03,,6.8173E-03,,11.6974,11.6972,0.1420,,62.623,72.100,,,,,,,,,,,,